"Sample Date","Sample Time","Sample Value","Units","Flow Rate","Sample Interval","Number Channels","Micron Size 0","Counts/Channel 0","Micron Size 1","Counts/Channel 1","Micron Size 2","Counts/Channel 2","Micron Size 3","Counts/Channel 3","Micron Size 4","Counts/Channel 4","Micron Size 5","Counts/Channel 5","Micron Size 6","Counts/Channel 6","Micron Size 7","Counts/Channel 7","Micron Size 8","Counts/Channel 8","Micron Size 9","Counts/Channel 9","Micron Size 10","Counts/Channel 10","Micron Size 11","Counts/Channel 11","Micron Size 12","Counts/Channel 12","Micron Size 13","Counts/Channel 13","Micron Size 14","Counts/Channel 14","Micron Size 15","Counts/Channel 15","Micron Size 16","Counts/Channel 16","Micron Size 17","Counts/Channel 17","Micron Size 18","Counts/Channel 18","Micron Size 19","Counts/Channel 19","Micron Size 20","Counts/Channel 20","Micron Size 21","Counts/Channel 21","Micron Size 22","Counts/Channel 22","Micron Size 23","Counts/Channel 23","Micron Size 24","Counts/Channel 24","Micron Size 25","Counts/Channel 25","Micron Size 26","Counts/Channel 26","Micron Size 27","Counts/Channel 27","Micron Size 28","Counts/Channel 28","Micron Size 29","Counts/Channel 29","Micron Size 30","Counts/Channel 30","Micron Size 31","Counts/Channel 31"
"03/12/08","08:00:02",25059.000,"cc",28358.252,6.00,6,0.100,21420.000,0.200,1648.000,0.300,806.000,0.500,881.000,1.000,304.000,5.000,0
"03/12/08","08:00:08",25319.000,"cc",28265.738,6.00,6,0.100,21606.000,0.200,1672.000,0.300,841.000,0.500,909.000,1.000,291.000,5.000,0
"03/12/08","08:00:14",25016.000,"cc",28304.617,6.00,6,0.100,21398.000,0.200,1639.000,0.300,799.000,0.500,903.000,1.000,277.000,5.000,0
"03/12/08","08:00:20",24764.000,"cc",28327.926,6.00,6,0.100,21155.000,0.200,1670.000,0.300,776.000,0.500,890.000,1.000,273.000,5.000,0
"03/12/08","08:00:26",24845.000,"cc",28352.389,6.00,6,0.100,21268.000,0.200,1679.000,0.300,759.000,0.500,858.000,1.000,281.000,5.000,0
"03/12/08","08:00:32",24728.000,"cc",28301.902,6.00,6,0.100,21118.000,0.200,1640.000,0.300,796.000,0.500,877.000,1.000,297.000,5.000,0
"03/12/08","08:00:38",24482.000,"cc",28339.619,6.00,6,0.100,20905.000,0.200,1630.000,0.300,779.000,0.500,905.000,1.000,263.000,5.000,0
"03/12/08","08:00:44",24344.000,"cc",28295.141,6.00,6,0.100,20972.000,0.200,1612.000,0.300,752.000,0.500,754.000,1.000,254.000,5.000,0
"03/12/08","08:00:50",24350.000,"cc",28391.188,6.00,6,0.100,20876.000,0.200,1612.000,0.300,775.000,0.500,833.000,1.000,254.000,5.000,0
"03/12/08","08:00:56",23846.000,"cc",28323.148,6.00,6,0.100,20427.000,0.200,1597.000,0.300,762.000,0.500,809.000,1.000,251.000,5.000,0
"03/12/08","08:01:02",24253.000,"cc",28314.188,6.00,6,0.100,20694.000,0.200,1677.000,0.300,750.000,0.500,847.000,1.000,285.000,5.000,0
"03/12/08","08:01:08",24120.000,"cc",28309.695,6.00,6,0.100,20617.000,0.200,1640.000,0.300,767.000,0.500,823.000,1.000,273.000,5.000,0
"03/12/08","08:01:14",23879.000,"cc",28348.424,6.00,6,0.100,20468.000,0.200,1645.000,0.300,673.000,0.500,850.000,1.000,243.000,5.000,0
"03/12/08","08:01:20",24441.000,"cc",28280.729,6.00,6,0.100,20855.000,0.200,1714.000,0.300,761.000,0.500,845.000,1.000,266.000,5.000,0
"03/12/08","08:01:26",24488.000,"cc",28335.729,6.00,6,0.100,20969.000,0.200,1637.000,0.300,763.000,0.500,842.000,1.000,277.000,5.000,0
"03/12/08","08:01:32",24207.000,"cc",28325.338,6.00,6,0.100,20654.000,0.200,1686.000,0.300,772.000,0.500,804.000,1.000,291.000,5.000,0
"03/12/08","08:01:38",24209.000,"cc",28329.266,6.00,6,0.100,20690.000,0.200,1709.000,0.300,720.000,0.500,843.000,1.000,247.000,5.000,0
"03/12/08","08:01:44",24318.000,"cc",28372.273,6.00,6,0.100,20805.000,0.200,1692.000,0.300,737.000,0.500,844.000,1.000,240.000,5.000,0
"03/12/08","08:01:50",24302.000,"cc",28303.551,6.00,6,0.100,20756.000,0.200,1616.000,0.300,779.000,0.500,883.000,1.000,268.000,5.000,0
"03/12/08","08:01:56",24139.000,"cc",28258.223,6.00,6,0.100,20650.000,0.200,1727.000,0.300,747.000,0.500,768.000,1.000,247.000,5.000,0
"03/12/08","08:02:02",24424.000,"cc",28275.137,6.00,6,0.100,20813.000,0.200,1659.000,0.300,818.000,0.500,857.000,1.000,277.000,5.000,0
"03/12/08","08:02:08",24970.000,"cc",28280.092,6.00,6,0.100,21311.000,0.200,1664.000,0.300,798.000,0.500,893.000,1.000,304.000,5.000,0
"03/12/08","08:02:14",24490.000,"cc",28324.584,6.00,6,0.100,20811.000,0.200,1770.000,0.300,755.000,0.500,871.000,1.000,283.000,5.000,0
"03/12/08","08:02:20",24744.000,"cc",28356.674,6.00,6,0.100,21188.000,0.200,1631.000,0.300,792.000,0.500,838.000,1.000,295.000,5.000,0
"03/12/08","08:02:26",24706.000,"cc",28253.768,6.00,6,0.100,21048.000,0.200,1686.000,0.300,807.000,0.500,827.000,1.000,338.000,5.000,0
"03/12/08","08:02:32",25051.000,"cc",28335.293,6.00,6,0.100,21276.000,0.200,1734.000,0.300,844.000,0.500,921.000,1.000,276.000,5.000,0
"03/12/08","08:02:38",25272.000,"cc",28338.041,6.00,6,0.100,21492.000,0.200,1743.000,0.300,831.000,0.500,892.000,1.000,314.000,5.000,0
"03/12/08","08:02:44",25449.000,"cc",28316.346,6.00,6,0.100,21661.000,0.200,1672.000,0.300,837.000,0.500,968.000,1.000,311.000,5.000,0
"03/12/08","08:02:50",25151.000,"cc",28412.467,6.00,6,0.100,21482.000,0.200,1718.000,0.300,811.000,0.500,872.000,1.000,268.000,5.000,0
"03/12/08","08:02:56",25128.000,"cc",28279.121,6.00,6,0.100,21408.000,0.200,1683.000,0.300,845.000,0.500,914.000,1.000,278.000,5.000,0
"03/12/08","08:03:02",25395.000,"cc",28236.133,6.00,6,0.100,21560.000,0.200,1768.000,0.300,836.000,0.500,944.000,1.000,287.000,5.000,0
"03/12/08","08:03:08",25462.000,"cc",28329.990,6.00,6,0.100,21688.000,0.200,1685.000,0.300,820.000,0.500,958.000,1.000,311.000,5.000,0
"03/12/08","08:03:14",25508.000,"cc",28376.523,6.00,6,0.100,21751.000,0.200,1681.000,0.300,879.000,0.500,929.000,1.000,268.000,5.000,0
"03/12/08","08:03:20",25518.000,"cc",28414.586,6.00,6,0.100,21885.000,0.200,1613.000,0.300,839.000,0.500,886.000,1.000,295.000,5.000,0
"03/12/08","08:03:26",25324.000,"cc",28241.434,6.00,6,0.100,21545.000,0.200,1751.000,0.300,821.000,0.500,920.000,1.000,287.000,5.000,0
"03/12/08","08:03:32",25512.000,"cc",28229.166,6.00,6,0.100,21789.000,0.200,1634.000,0.300,804.000,0.500,963.000,1.000,322.000,5.000,0
"03/12/08","08:03:38",24931.000,"cc",28331.551,6.00,6,0.100,21304.000,0.200,1698.000,0.300,779.000,0.500,866.000,1.000,284.000,5.000,0
"03/12/08","08:03:44",25683.000,"cc",28362.178,6.00,6,0.100,21858.000,0.200,1752.000,0.300,837.000,0.500,912.000,1.000,324.000,5.000,0
"03/12/08","08:03:50",26233.000,"cc",28241.900,6.00,6,0.100,22304.000,0.200,1705.000,0.300,902.000,0.500,1020.000,1.000,302.000,5.000,0
"03/12/08","08:03:56",26767.000,"cc",28337.332,6.00,6,0.100,22673.000,0.200,1794.000,0.300,933.000,0.500,1032.000,1.000,335.000,5.000,0
"03/12/08","08:04:02",26412.000,"cc",28292.383,6.00,6,0.100,22494.000,0.200,1751.000,0.300,845.000,0.500,993.000,1.000,329.000,5.000,0
"03/12/08","08:04:08",26286.000,"cc",28292.354,6.00,6,0.100,22309.000,0.200,1743.000,0.300,871.000,0.500,1014.000,1.000,349.000,5.000,0
"03/12/08","08:04:14",26115.000,"cc",28313.559,6.00,6,0.100,22134.000,0.200,1809.000,0.300,908.000,0.500,956.000,1.000,308.000,5.000,0
"03/12/08","08:04:20",26223.000,"cc",28351.986,6.00,6,0.100,22194.000,0.200,1757.000,0.300,892.000,0.500,1045.000,1.000,335.000,5.000,0
"03/12/08","08:04:26",26495.000,"cc",28329.822,6.00,6,0.100,22516.000,0.200,1784.000,0.300,950.000,0.500,927.000,1.000,318.000,5.000,0
"03/12/08","08:04:32",26091.000,"cc",28271.313,6.00,6,0.100,22239.000,0.200,1746.000,0.300,838.000,0.500,933.000,1.000,335.000,5.000,0
"03/12/08","08:04:38",26393.000,"cc",28320.709,6.00,6,0.100,22424.000,0.200,1737.000,0.300,924.000,0.500,990.000,1.000,318.000,5.000,0
"03/12/08","08:04:44",26643.000,"cc",28262.447,6.00,6,0.100,22667.000,0.200,1762.000,0.300,871.000,0.500,985.000,1.000,358.000,5.000,0
"03/12/08","08:04:50",26563.000,"cc",28329.217,6.00,6,0.100,22648.000,0.200,1763.000,0.300,861.000,0.500,985.000,1.000,306.000,5.000,0
"03/12/08","08:04:56",26408.000,"cc",28359.879,6.00,6,0.100,22405.000,0.200,1784.000,0.300,877.000,0.500,1006.000,1.000,336.000,5.000,0
"03/12/08","08:05:02",26232.000,"cc",28325.889,6.00,6,0.100,22362.000,0.200,1727.000,0.300,874.000,0.500,952.000,1.000,317.000,5.000,0
"03/12/08","08:05:08",26535.000,"cc",28340.398,6.00,6,0.100,22592.000,0.200,1761.000,0.300,893.000,0.500,962.000,1.000,327.000,5.000,0
"03/12/08","08:05:14",26410.000,"cc",28276.690,6.00,6,0.100,22467.000,0.200,1776.000,0.300,814.000,0.500,991.000,1.000,362.000,5.000,0
"03/12/08","08:05:20",26395.000,"cc",28338.592,6.00,6,0.100,22483.000,0.200,1759.000,0.300,895.000,0.500,950.000,1.000,308.000,5.000,0
"03/12/08","08:05:26",26309.000,"cc",28343.248,6.00,6,0.100,22402.000,0.200,1744.000,0.300,867.000,0.500,983.000,1.000,313.000,5.000,0
"03/12/08","08:05:32",26377.000,"cc",28278.523,6.00,6,0.100,22412.000,0.200,1766.000,0.300,865.000,0.500,1002.000,1.000,332.000,5.000,0
"03/12/08","08:05:38",26628.000,"cc",28274.277,6.00,6,0.100,22554.000,0.200,1836.000,0.300,866.000,0.500,1011.000,1.000,361.000,5.000,0
"03/12/08","08:05:44",26073.000,"cc",28325.127,6.00,6,0.100,22198.000,0.200,1789.000,0.300,852.000,0.500,919.000,1.000,315.000,5.000,0
"03/12/08","08:05:50",26311.000,"cc",28320.750,6.00,6,0.100,22391.000,0.200,1749.000,0.300,895.000,0.500,956.000,1.000,320.000,5.000,0
"03/12/08","08:05:56",26074.000,"cc",28374.188,6.00,6,0.100,22160.000,0.200,1795.000,0.300,866.000,0.500,945.000,1.000,308.000,5.000,0
"03/12/08","08:06:02",25964.000,"cc",28227.828,6.00,6,0.100,22132.000,0.200,1691.000,0.300,945.000,0.500,899.000,1.000,297.000,5.000,0
"03/12/08","08:06:08",26251.000,"cc",28342.635,6.00,6,0.100,22254.000,0.200,1794.000,0.300,924.000,0.500,948.000,1.000,331.000,5.000,0
"03/12/08","08:06:14",26004.000,"cc",28347.549,6.00,6,0.100,22120.000,0.200,1833.000,0.300,871.000,0.500,909.000,1.000,271.000,5.000,0
"03/12/08","08:06:20",26370.000,"cc",28261.346,6.00,6,0.100,22423.000,0.200,1828.000,0.300,902.000,0.500,923.000,1.000,294.000,5.000,0
"03/12/08","08:06:26",25701.000,"cc",28307.240,6.00,6,0.100,21924.000,0.200,1688.000,0.300,844.000,0.500,939.000,1.000,306.000,5.000,0
"03/12/08","08:06:32",25666.000,"cc",28326.197,6.00,6,0.100,21909.000,0.200,1777.000,0.300,825.000,0.500,881.000,1.000,274.000,5.000,0
"03/12/08","08:06:38",26105.000,"cc",28367.469,6.00,6,0.100,22174.000,0.200,1818.000,0.300,859.000,0.500,934.000,1.000,320.000,5.000,0
"03/12/08","08:06:44",26014.000,"cc",28208.232,6.00,6,0.100,22175.000,0.200,1709.000,0.300,858.000,0.500,955.000,1.000,317.000,5.000,0
"03/12/08","08:06:50",26376.000,"cc",28292.637,6.00,6,0.100,22377.000,0.200,1835.000,0.300,900.000,0.500,945.000,1.000,319.000,5.000,0
"03/12/08","08:06:56",25972.000,"cc",28332.832,6.00,6,0.100,22070.000,0.200,1755.000,0.300,881.000,0.500,972.000,1.000,294.000,5.000,0
"03/12/08","08:07:02",26219.000,"cc",28316.736,6.00,6,0.100,22289.000,0.200,1780.000,0.300,829.000,0.500,995.000,1.000,326.000,5.000,0
"03/12/08","08:07:08",26064.000,"cc",28384.272,6.00,6,0.100,22217.000,0.200,1748.000,0.300,816.000,0.500,957.000,1.000,326.000,5.000,0
"03/12/08","08:07:14",25837.000,"cc",28342.680,6.00,6,0.100,21905.000,0.200,1776.000,0.300,884.000,0.500,996.000,1.000,276.000,5.000,0
"03/12/08","08:07:20",26240.000,"cc",28339.834,6.00,6,0.100,22259.000,0.200,1762.000,0.300,905.000,0.500,979.000,1.000,335.000,5.000,0
"03/12/08","08:07:26",25903.000,"cc",28310.033,6.00,6,0.100,21881.000,0.200,1746.000,0.300,950.000,0.500,986.000,1.000,340.000,5.000,0
"03/12/08","08:07:32",25941.000,"cc",28310.557,6.00,6,0.100,22108.000,0.200,1767.000,0.300,834.000,0.500,897.000,1.000,335.000,5.000,0
"03/12/08","08:07:38",25594.000,"cc",28276.690,6.00,6,0.100,21809.000,0.200,1700.000,0.300,847.000,0.500,922.000,1.000,316.000,5.000,0
"03/12/08","08:07:44",25830.000,"cc",28303.650,6.00,6,0.100,21929.000,0.200,1713.000,0.300,914.000,0.500,948.000,1.000,326.000,5.000,0
"03/12/08","08:07:50",25895.000,"cc",28323.340,6.00,6,0.100,22017.000,0.200,1743.000,0.300,878.000,0.500,926.000,1.000,331.000,5.000,0
"03/12/08","08:07:56",26482.000,"cc",28283.803,6.00,6,0.100,22484.000,0.200,1788.000,0.300,890.000,0.500,994.000,1.000,326.000,5.000,0
"03/12/08","08:08:02",26331.000,"cc",28329.311,6.00,6,0.100,22348.000,0.200,1794.000,0.300,898.000,0.500,999.000,1.000,292.000,5.000,0
"03/12/08","08:08:08",26493.000,"cc",28349.033,6.00,6,0.100,22500.000,0.200,1788.000,0.300,871.000,0.500,989.000,1.000,345.000,5.000,0
"03/12/08","08:08:14",25951.000,"cc",28309.773,6.00,6,0.100,22100.000,0.200,1708.000,0.300,869.000,0.500,975.000,1.000,299.000,5.000,0
"03/12/08","08:08:20",26773.000,"cc",28255.195,6.00,6,0.100,22636.000,0.200,1805.000,0.300,938.000,0.500,1053.000,1.000,341.000,5.000,0
"03/12/08","08:08:26",26494.000,"cc",28275.057,6.00,6,0.100,22577.000,0.200,1758.000,0.300,868.000,0.500,963.000,1.000,328.000,5.000,0
"03/12/08","08:08:32",25991.000,"cc",28331.830,6.00,6,0.100,22022.000,0.200,1688.000,0.300,912.000,0.500,1011.000,1.000,358.000,5.000,0
"03/12/08","08:08:38",26799.000,"cc",28313.365,6.00,6,0.100,22745.000,0.200,1751.000,0.300,936.000,0.500,1018.000,1.000,349.000,5.000,0
"03/12/08","08:08:44",26154.000,"cc",28364.809,6.00,6,0.100,22296.000,0.200,1695.000,0.300,872.000,0.500,937.000,1.000,354.000,5.000,0
"03/12/08","08:08:50",25018.000,"cc",28328.377,6.00,6,0.100,21293.000,0.200,1811.000,0.300,763.000,0.500,875.000,1.000,276.000,5.000,0
"03/12/08","08:08:56",25511.000,"cc",28344.600,6.00,6,0.100,21628.000,0.200,1718.000,0.300,900.000,0.500,949.000,1.000,316.000,5.000,0
"03/12/08","08:09:02",25685.000,"cc",28281.186,6.00,6,0.100,21798.000,0.200,1741.000,0.300,842.000,0.500,919.000,1.000,385.000,5.000,0
"03/12/08","08:09:08",26957.000,"cc",28263.930,6.00,6,0.100,22867.000,0.200,1826.000,0.300,867.000,0.500,1075.000,1.000,322.000,5.000,0
"03/12/08","08:09:14",26669.000,"cc",28271.727,6.00,6,0.100,22569.000,0.200,1820.000,0.300,905.000,0.500,1040.000,1.000,335.000,5.000,0
"03/12/08","08:09:20",26114.000,"cc",28337.684,6.00,6,0.100,22199.000,0.200,1724.000,0.300,909.000,0.500,963.000,1.000,319.000,5.000,0
"03/12/08","08:09:26",26662.000,"cc",28264.361,6.00,6,0.100,22601.000,0.200,1835.000,0.300,882.000,0.500,1015.000,1.000,329.000,5.000,0
"03/12/08","08:09:32",26285.000,"cc",28410.838,6.00,6,0.100,22279.000,0.200,1770.000,0.300,904.000,0.500,995.000,1.000,337.000,5.000,0
"03/12/08","08:09:38",26564.000,"cc",28342.455,6.00,6,0.100,22502.000,0.200,1753.000,0.300,934.000,0.500,1032.000,1.000,343.000,5.000,0
"03/12/08","08:09:44",26224.000,"cc",28316.979,6.00,6,0.100,22292.000,0.200,1727.000,0.300,929.000,0.500,968.000,1.000,307.000,5.000,1.000
"03/12/08","08:09:50",25315.000,"cc",28361.373,6.00,6,0.100,21509.000,0.200,1764.000,0.300,878.000,0.500,868.000,1.000,296.000,5.000,0
"03/12/08","08:09:56",24831.000,"cc",28338.559,6.00,6,0.100,21163.000,0.200,1655.000,0.300,787.000,0.500,914.000,1.000,312.000,5.000,0
"03/12/08","08:10:02",24847.000,"cc",28258.393,6.00,6,0.100,21163.000,0.200,1659.000,0.300,782.000,0.500,899.000,1.000,344.000,5.000,0
"03/12/08","08:10:08",25266.000,"cc",28255.645,6.00,6,0.100,21562.000,0.200,1732.000,0.300,768.000,0.500,876.000,1.000,328.000,5.000,0
"03/12/08","08:10:14",26842.000,"cc",28342.684,6.00,6,0.100,22758.000,0.200,1792.000,0.300,883.000,0.500,1050.000,1.000,359.000,5.000,0
"03/12/08","08:10:20",26821.000,"cc",28315.731,6.00,6,0.100,22776.000,0.200,1798.000,0.300,928.000,0.500,970.000,1.000,349.000,5.000,0
"03/12/08","08:10:26",26398.000,"cc",28250.453,6.00,6,0.100,22442.000,0.200,1804.000,0.300,873.000,0.500,963.000,1.000,316.000,5.000,0
"03/12/08","08:10:32",26448.000,"cc",28308.641,6.00,6,0.100,22511.000,0.200,1747.000,0.300,896.000,0.500,970.000,1.000,324.000,5.000,0
"03/12/08","08:10:38",25601.000,"cc",28373.080,6.00,6,0.100,21860.000,0.200,1682.000,0.300,842.000,0.500,909.000,1.000,308.000,5.000,0
"03/12/08","08:10:44",25969.000,"cc",28332.684,6.00,6,0.100,22085.000,0.200,1766.000,0.300,872.000,0.500,951.000,1.000,295.000,5.000,0
"03/12/08","08:10:50",25632.000,"cc",28381.231,6.00,6,0.100,21968.000,0.200,1667.000,0.300,833.000,0.500,865.000,1.000,299.000,5.000,0
"03/12/08","08:10:56",25100.000,"cc",28260.135,6.00,6,0.100,21373.000,0.200,1769.000,0.300,784.000,0.500,882.000,1.000,292.000,5.000,0
"03/12/08","08:11:02",26380.000,"cc",28342.369,6.00,6,0.100,22484.000,0.200,1795.000,0.300,850.000,0.500,912.000,1.000,339.000,5.000,0
"03/12/08","08:11:08",26220.000,"cc",28299.678,6.00,6,0.100,22335.000,0.200,1714.000,0.300,870.000,0.500,979.000,1.000,322.000,5.000,0
"03/12/08","08:11:14",26378.000,"cc",28374.061,6.00,6,0.100,22474.000,0.200,1719.000,0.300,887.000,0.500,961.000,1.000,337.000,5.000,0
"03/12/08","08:11:20",26142.000,"cc",28277.760,6.00,6,0.100,22199.000,0.200,1684.000,0.300,880.000,0.500,1049.000,1.000,330.000,5.000,0
"03/12/08","08:11:26",26886.000,"cc",28348.707,6.00,6,0.100,22790.000,0.200,1847.000,0.300,849.000,0.500,1026.000,1.000,374.000,5.000,0
"03/12/08","08:11:32",26434.000,"cc",28280.137,6.00,6,0.100,22545.000,0.200,1702.000,0.300,861.000,0.500,972.000,1.000,354.000,5.000,0
"03/12/08","08:11:38",26813.000,"cc",28278.717,6.00,6,0.100,22794.000,0.200,1758.000,0.300,908.000,0.500,1007.000,1.000,346.000,5.000,0
"03/12/08","08:11:44",26738.000,"cc",28298.523,6.00,6,0.100,22735.000,0.200,1773.000,0.300,913.000,0.500,961.000,1.000,356.000,5.000,0
"03/12/08","08:11:50",26873.000,"cc",28307.705,6.00,6,0.100,22918.000,0.200,1750.000,0.300,921.000,0.500,913.000,1.000,371.000,5.000,0
"03/12/08","08:11:56",26678.000,"cc",28343.418,6.00,6,0.100,22826.000,0.200,1704.000,0.300,841.000,0.500,951.000,1.000,356.000,5.000,0
"03/12/08","08:12:02",26782.000,"cc",28348.104,6.00,6,0.100,22709.000,0.200,1728.000,0.300,924.000,0.500,1060.000,1.000,361.000,5.000,0
"03/12/08","08:12:08",27211.000,"cc",28339.186,6.00,6,0.100,23091.000,0.200,1756.000,0.300,972.000,0.500,1047.000,1.000,345.000,5.000,0
"03/12/08","08:12:14",27243.000,"cc",28252.998,6.00,6,0.100,23304.000,0.200,1787.000,0.300,830.000,0.500,996.000,1.000,326.000,5.000,0
"03/12/08","08:12:20",27269.000,"cc",28340.611,6.00,6,0.100,23250.000,0.200,1756.000,0.300,929.000,0.500,984.000,1.000,350.000,5.000,0
"03/12/08","08:12:26",27239.000,"cc",28250.338,6.00,6,0.100,23128.000,0.200,1797.000,0.300,931.000,0.500,1013.000,1.000,370.000,5.000,0
"03/12/08","08:12:32",27377.000,"cc",28340.270,6.00,6,0.100,23128.000,0.200,1831.000,0.300,967.000,0.500,1085.000,1.000,366.000,5.000,0
"03/12/08","08:12:38",27221.000,"cc",28322.879,6.00,6,0.100,23127.000,0.200,1786.000,0.300,955.000,0.500,1013.000,1.000,340.000,5.000,0
"03/12/08","08:12:44",27058.000,"cc",28320.121,6.00,6,0.100,23085.000,0.200,1698.000,0.300,897.000,0.500,998.000,1.000,380.000,5.000,0
"03/12/08","08:12:50",27107.000,"cc",28393.104,6.00,6,0.100,23065.000,0.200,1775.000,0.300,916.000,0.500,992.000,1.000,359.000,5.000,0
"03/12/08","08:12:56",27234.000,"cc",28294.238,6.00,6,0.100,23267.000,0.200,1730.000,0.300,948.000,0.500,962.000,1.000,327.000,5.000,0
"03/12/08","08:13:02",27066.000,"cc",28333.387,6.00,6,0.100,23111.000,0.200,1785.000,0.300,881.000,0.500,993.000,1.000,296.000,5.000,0
"03/12/08","08:13:08",27139.000,"cc",28325.135,6.00,6,0.100,23103.000,0.200,1776.000,0.300,911.000,0.500,1006.000,1.000,343.000,5.000,0
"03/12/08","08:13:14",26907.000,"cc",28304.453,6.00,6,0.100,22839.000,0.200,1833.000,0.300,864.000,0.500,997.000,1.000,374.000,5.000,0
"03/12/08","08:13:20",26997.000,"cc",28233.232,6.00,6,0.100,22967.000,0.200,1738.000,0.300,924.000,0.500,1012.000,1.000,356.000,5.000,0
"03/12/08","08:13:26",26938.000,"cc",28361.402,6.00,6,0.100,23056.000,0.200,1742.000,0.300,868.000,0.500,979.000,1.000,293.000,5.000,0
"03/12/08","08:13:32",26920.000,"cc",28348.656,6.00,6,0.100,22885.000,0.200,1846.000,0.300,869.000,0.500,975.000,1.000,345.000,5.000,0
"03/12/08","08:13:38",26671.000,"cc",28298.057,6.00,6,0.100,22502.000,0.200,1882.000,0.300,911.000,0.500,1043.000,1.000,333.000,5.000,0
"03/12/08","08:13:44",26712.000,"cc",28288.979,6.00,6,0.100,22776.000,0.200,1737.000,0.300,896.000,0.500,980.000,1.000,323.000,5.000,0
"03/12/08","08:13:50",26796.000,"cc",28346.109,6.00,6,0.100,22831.000,0.200,1730.000,0.300,877.000,0.500,1037.000,1.000,321.000,5.000,0
"03/12/08","08:13:56",26673.000,"cc",28374.223,6.00,6,0.100,22594.000,0.200,1832.000,0.300,929.000,0.500,999.000,1.000,319.000,5.000,0
"03/12/08","08:14:02",26341.000,"cc",28362.920,6.00,6,0.100,22403.000,0.200,1775.000,0.300,853.000,0.500,966.000,1.000,344.000,5.000,0
"03/12/08","08:14:08",26424.000,"cc",28241.043,6.00,6,0.100,22565.000,0.200,1731.000,0.300,852.000,0.500,952.000,1.000,324.000,5.000,0
"03/12/08","08:14:14",26489.000,"cc",28325.006,6.00,6,0.100,22503.000,0.200,1736.000,0.300,937.000,0.500,957.000,1.000,356.000,5.000,0
"03/12/08","08:14:20",26563.000,"cc",28284.109,6.00,6,0.100,22603.000,0.200,1859.000,0.300,848.000,0.500,928.000,1.000,325.000,5.000,0
"03/12/08","08:14:26",26611.000,"cc",28378.393,6.00,6,0.100,22751.000,0.200,1723.000,0.300,882.000,0.500,910.000,1.000,345.000,5.000,0
"03/12/08","08:14:32",26610.000,"cc",28299.813,6.00,6,0.100,22740.000,0.200,1791.000,0.300,832.000,0.500,900.000,1.000,347.000,5.000,0
"03/12/08","08:14:38",26614.000,"cc",28263.506,6.00,6,0.100,22760.000,0.200,1743.000,0.300,896.000,0.500,912.000,1.000,303.000,5.000,0
"03/12/08","08:14:44",26554.000,"cc",28340.096,6.00,6,0.100,22534.000,0.200,1805.000,0.300,907.000,0.500,973.000,1.000,335.000,5.000,0
"03/12/08","08:14:50",26736.000,"cc",28307.295,6.00,6,0.100,22758.000,0.200,1806.000,0.300,885.000,0.500,946.000,1.000,341.000,5.000,0
"03/12/08","08:14:56",26398.000,"cc",28347.822,6.00,6,0.100,22385.000,0.200,1786.000,0.300,887.000,0.500,1001.000,1.000,339.000,5.000,0
"03/12/08","08:15:02",26206.000,"cc",28352.074,6.00,6,0.100,22438.000,0.200,1731.000,0.300,812.000,0.500,924.000,1.000,301.000,5.000,0
"03/12/08","08:15:08",26172.000,"cc",28300.025,6.00,6,0.100,22274.000,0.200,1834.000,0.300,898.000,0.500,862.000,1.000,304.000,5.000,0
"03/12/08","08:15:14",26065.000,"cc",28303.311,6.00,6,0.100,22130.000,0.200,1898.000,0.300,796.000,0.500,917.000,1.000,324.000,5.000,0
"03/12/08","08:15:20",25697.000,"cc",28316.703,6.00,6,0.100,21880.000,0.200,1748.000,0.300,828.000,0.500,916.000,1.000,325.000,5.000,0
"03/12/08","08:15:26",26134.000,"cc",28322.623,6.00,6,0.100,22257.000,0.200,1830.000,0.300,840.000,0.500,914.000,1.000,293.000,5.000,0
"03/12/08","08:15:32",25460.000,"cc",28322.621,6.00,6,0.100,21694.000,0.200,1799.000,0.300,817.000,0.500,854.000,1.000,296.000,5.000,0
"03/12/08","08:15:38",25875.000,"cc",28307.676,6.00,6,0.100,21971.000,0.200,1763.000,0.300,890.000,0.500,939.000,1.000,312.000,5.000,0
"03/12/08","08:15:44",25675.000,"cc",28369.205,6.00,6,0.100,21768.000,0.200,1873.000,0.300,839.000,0.500,908.000,1.000,287.000,5.000,0
"03/12/08","08:15:50",25240.000,"cc",28320.467,6.00,6,0.100,21544.000,0.200,1745.000,0.300,771.000,0.500,885.000,1.000,295.000,5.000,0
"03/12/08","08:15:56",25671.000,"cc",28275.941,6.00,6,0.100,21831.000,0.200,1792.000,0.300,839.000,0.500,883.000,1.000,326.000,5.000,0
"03/12/08","08:16:02",25785.000,"cc",28283.152,6.00,6,0.100,22046.000,0.200,1808.000,0.300,787.000,0.500,890.000,1.000,254.000,5.000,0
"03/12/08","08:16:08",25985.000,"cc",28310.258,6.00,6,0.100,22062.000,0.200,1782.000,0.300,846.000,0.500,937.000,1.000,358.000,5.000,0
"03/12/08","08:16:14",25889.000,"cc",28401.162,6.00,6,0.100,22014.000,0.200,1850.000,0.300,812.000,0.500,902.000,1.000,311.000,5.000,0
"03/12/08","08:16:20",26415.000,"cc",28295.758,6.00,6,0.100,22529.000,0.200,1808.000,0.300,861.000,0.500,932.000,1.000,285.000,5.000,0
"03/12/08","08:16:26",26169.000,"cc",28295.918,6.00,6,0.100,22194.000,0.200,1863.000,0.300,845.000,0.500,943.000,1.000,324.000,5.000,0
"03/12/08","08:16:32",25886.000,"cc",28306.977,6.00,6,0.100,21994.000,0.200,1795.000,0.300,858.000,0.500,938.000,1.000,301.000,5.000,0